Location: Curpenii-Silva?ului
(45.6500°N, 22.8167°E)
Time: 10:40:04
(UTC+00:00)

Daily predictions for brighter satellites

Satellite Brightness Start Highest point End
(mag) Time Altitude Azimuth Time Altitude Azimuth Time Altitude Azimuth
Cosmos 2233 Rocket 4.1 15:16:42 10° S 15:22:51 60° E 15:29:04 10° NNE
Cosmos 1725 Rocket 4.1 15:17:27 10° S 15:23:43 87° E 15:30:04 10° N
Cosmos 2061 Rocket 4.1 15:18:53 10° SSE 15:25:01 56° E 15:31:06 10° NNE
Iridium 4 Rocket 3.7 15:20:32 10° S 15:25:38 73° W 15:30:19 10° N
Cosmos 407 Rocket 4.1 15:23:37 10° SSE 15:28:18 35° ESE 15:32:58 10° NE
CBERS-1 4.2 15:23:59 10° SSE 15:29:06 84° WSW 15:34:15 10° NNW
Cosmos 1484 Rocket 3.0 15:25:54 10° S 15:29:22 65° WSW 15:32:53 10° NNW
RESURS DK-1 3.0 15:30:46 10° N 15:34:23 31° NE 15:37:58 10° ESE
Cosmos 1782 Rocket 3.5 15:32:49 10° S 15:37:15 80° E 15:41:42 10° N
ISS -3.6 15:37:57 10° SW 15:41:15 63° SSE 15:44:16 12° ENE
Cosmos 1300 Rocket 3.6 15:37:10 10° S 15:41:32 84° W 15:45:57 10° N
Cosmos 1869 3.6 15:38:53 10° SSE 15:42:06 34° E 15:45:18 10° NNE
CZ-2D R/B 3.1 15:39:39 10° SE 15:42:39 42° ENE 15:45:40 10° N
SJ-12 3.8 15:43:30 10° SSE 15:47:11 51° ENE 15:50:53 10° N
COSMO-SKYMED 1 4.1 15:45:04 11° ENE 15:47:18 15° E 15:49:42 10° SE
IGS 5A 3.8 15:43:30 10° S 15:47:27 67° WSW 15:51:28 10° NNW
AQUARIUS 4.4 15:44:30 10° SE 15:48:42 46° ENE 15:52:56 10° N
Cosmos 540 Rocket 3.6 15:45:10 10° NNW 15:50:08 48° ENE 15:55:04 10° SE
Cosmos 1763 Rocket 3.5 15:50:16 10° NNW 15:55:28 63° ENE 16:00:33 10° SSE
Cosmos 1400 Rocket 4.2 15:53:07 10° SE 15:55:35 17° E 15:56:32 15° ENE
Cosmos 1975 Rocket 3.0 15:52:08 10° N 15:56:30 85° ENE 16:00:53 10° S
CORIOLIS 4.3 15:51:53 10° SSE 15:57:15 82° WSW 16:02:38 10° NNW
Cosmos 1140 Rocket 3.9 15:55:10 10° SSW 16:00:18 64° WNW 16:05:27 10° NNE
IRS-1C 4.1 15:57:15 10° SSE 16:02:35 87° ENE 16:07:56 10° NNW
Cosmos 2151 Rocket 4.5 15:59:40 10° SSE 16:03:29 28° E 16:07:21 10° NNE
SMAP 3.3 15:59:06 10° S 16:03:44 74° WSW 16:08:25 10° NNW
Cosmos 1812 2.5 16:01:04 10° SSE 16:03:45 35° E 16:05:46 15° NNE
Cosmos 44 Rocket 3.4 15:59:50 10° SSW 16:04:27 54° ESE 16:08:29 14° NE
Cosmos 1943 Rocket 2.2 16:00:57 10° SSW 16:06:30 67° ESE 16:12:03 10° NNE
Cosmos 2058 3.2 16:04:21 10° N 16:08:05 38° ENE 16:11:48 10° SE
Cosmos 2082 Rocket 2.4 16:06:35 10° NNW 16:12:01 47° ENE 16:17:25 10° SE
SKYMED 2 4.0 16:09:14 10° NNE 16:13:21 40° E 16:17:25 10° SSE
Okean 1 Rocket 4.1 16:10:11 10° SE 16:13:39 23° E 16:14:36 21° ENE
Aureole 3 Rocket 2.2 16:11:03 10° S 16:14:01 53° E 16:17:00 11° NNE
Cosmos 2278 Rocket 2.1 16:09:19 10° SSW 16:14:56 74° ESE 16:20:36 10° NNE
CZ-2D R/B 3.8 16:11:22 10° SE 16:15:15 42° ENE 16:19:13 10° N
Landsat 7 3.9 16:11:34 10° S 16:16:13 77° WSW 16:20:53 10° NNW
PSLV R/B 4.1 16:13:03 10° SE 16:16:36 30° ENE 16:20:09 10° N
Helios 1A Rocket 3.3 16:18:17 27° E 16:18:26 27° E 16:21:21 10° SSE
SL-16 R/B 4.0 16:16:13 10° N 16:21:52 37° WNW 16:27:29 10° SW
Cosmos 1513 Rocket 4.5 16:16:16 10° S 16:22:34 73° E 16:28:58 10° NNE
Cosmos 2251 Rocket 3.5 16:22:05 10° S 16:27:17 65° ESE 16:32:12 12° NNE
Cosmos 2344 4.2 16:23:58 10° NNW 16:31:21 44° NE 16:37:27 21° E
SL-19 R/B 4.2 16:26:54 10° SE 16:31:56 51° ENE 16:36:59 10° N
Cosmos 371 Rocket 3.8 16:28:32 10° S 16:32:56 37° ESE 16:34:20 30° ENE
CZ-4C R/B 4.2 16:30:18 10° NW 16:33:35 17° NNW 16:37:21 10° NNE
YAOGAN 1 2.6 16:29:40 10° SE 16:33:45 49° ENE 16:37:53 10° N
Cosmos 304 Rocket 4.2 16:29:48 10° S 16:34:11 39° ESE 16:35:37 31° ENE
Cosmos 841 Rocket 3.9 16:30:06 10° N 16:35:01 39° ENE 16:37:10 27° ESE
ATLAS 2AS CENTAUR R/B 3.7 16:30:33 10° NNW 16:36:13 27° NNE 16:38:09 24° NE
Nadezhda 4 Rocket 4.0 16:30:03 10° N 16:36:18 61° ENE 16:42:25 10° SSE
SJ 16-02 1.4 16:33:19 10° S 16:37:30 52° ESE 16:39:07 33° NE
COSMOS 2406 3.4 16:39:06 10° NNW 16:44:36 47° ENE 16:47:00 30° ESE
ARIANE 5 R/B 4.0 16:40:35 10° SSW 16:45:12 38° W 16:49:52 10° NNW
Resurs 1-3 3.5 16:41:19 10° SSE 16:45:32 62° ENE 16:49:48 10° N
Cosmos 1656 Rocket 4.2 16:41:46 10° S 16:46:44 35° ESE 16:47:09 35° E
Cosmos 468 Rocket 3.9 16:43:26 10° NNW 16:48:40 85° WSW 16:53:48 10° SSE
Cosmos 1862 2.9 16:45:18 10° N 16:48:57 82° E 16:52:34 10° S
USA 215 4.1 16:44:45 10° SSE 16:51:03 50° SW 16:57:23 10° WNW
Cosmos 1428 Rocket 4.4 16:49:45 10° N 16:56:03 72° E 17:02:19 10° SSE
Cosmos 489 Rocket 4.3 16:51:47 10° NNW 16:58:04 76° ENE 17:04:17 10° SSE
MOS 1 Rocket 4.1 16:54:01 10° S 16:58:08 46° W 17:02:28 10° NNW
Okean 2 Rocket 2.9 16:53:49 10° S 16:58:12 82° E 17:00:34 27° NNE
Cosmos 1536 Rocket 3.5 16:53:54 10° N 16:58:21 82° W 17:02:44 10° S
Cosmos 1190 Rocket 4.0 16:53:05 10° SSW 16:58:23 83° WNW 17:02:13 19° NNE
Cosmos 676 Rocket 3.9 16:56:03 10° S 17:01:17 66° ESE 17:03:00 42° NE
Meteor 2-3 Rocket 3.7 16:58:41 10° N 17:04:20 59° ENE 17:07:28 26° SE
Resurs 01 Rocket 3.7 17:08:57 16° N 17:08:57 16° N 17:09:54 10° N
Cosmos 1954 Rocket 4.0 17:06:07 10° SSW 17:11:23 79° WNW 17:14:07 29° NNE
USA 281 3.5 17:15:07 45° ENE 17:15:18 45° NE 17:21:29 10° NNW
BlueWalker 3 4.2 17:13:43 10° SSW 17:14:33 15° S 17:14:33 15° S
SPOT 1/Viking Rocket 4.4 17:12:05 10° S 17:17:05 49° W 17:22:07 10° NNW
ISS -1.9 17:15:03 10° W 17:17:12 28° NW 17:17:12 28° NW
COSMO-SKYMED 1 3.2 17:21:27 33° NNW 17:22:56 51° WNW 17:26:56 10° SSW
Cosmos 1634 Rocket 4.4 17:18:25 10° SSE 17:33:07 - NNE 17:22:50 43° SE
Cosmos 1400 Rocket 4.1 17:27:13 10° SW 17:30:45 36° WNW 17:31:12 34° WNW
BREEZE-M DEB (TANK) 3.3 17:29:11 10° W 17:32:21 59° N 17:32:21 59° N
Cosmos 2034 Rocket 4.2 17:30:55 10° SSW 17:37:04 68° W 17:43:19 10° N
Cosmos 1943 Rocket 4.2 17:46:17 10° W 17:50:43 24° NW 17:54:09 14° N
Cosmos 1092 Rocket 4.1 17:46:52 10° NNW 17:53:06 74° W 17:54:59 47° SSW
Cosmos 2082 Rocket 4.0 17:51:06 10° NW 17:55:49 28° WSW 18:00:31 10° SSW
Cosmos 2026 Rocket 4.4 17:53:36 10° NNW 17:59:33 58° W 18:05:33 10° S
Cosmos 2278 Rocket 4.3 17:55:16 10° W 17:59:36 22° NW 18:02:47 14° N
BREEZE-M DEB (TANK) 4.3 18:00:29 10° W 18:03:16 53° NW 18:03:16 53° NW
Cosmos 2369 Rocket 4.3 18:03:17 10° SSW 18:04:20 16° SSW 18:04:20 16° SSW
SJ 16-02 3.9 18:12:59 10° W 18:15:42 18° WNW 18:15:42 18° WNW
ATLAS 2AS CENTAUR R/B 3.5 18:21:16 10° NW 18:25:35 43° NNW 18:25:35 43° NNW
Cosmos 2344 4.4 18:38:04 10° NW 18:46:12 60° WSW 18:47:32 56° SSW
